• In Deutschland
  • Länderverzeichnis
  • Für 7 Tage
  • Wassertemperatur
  • Satellitenkarten
  • Wetterkarte
  • Widgets
  • user-avatar
    Anmelden

    Stündliche Wetter Bania Luka

    Heute, 17 August, Donnerstag

    Zeit Temperatur Niederschläge Wind Luftdruck Luftfeuchtigkeit
    00:00 +18°C° 0 mm 1 m/S 717 mmHg 76%
    01:00 +18°C° 0 mm 1 m/S 717 mmHg 80%
    02:00 +18°C° 0 mm 1 m/S 717 mmHg 80%
    03:00 +18°C° 0 mm 1 m/S 717 mmHg 81%
    04:00 +16°C° 0 mm 1 m/S 717 mmHg 82%
    05:00 +19°C° 0 mm 1 m/S 717 mmHg 77%
    06:00 +20°C° 0 mm 1 m/S 717 mmHg 72%
    07:00 +23°C° 0 mm 1 m/S 718 mmHg 66%
    08:00 +24°C° 0 mm 1 m/S 718 mmHg 59%
    09:00 +26°C° 0 mm 2 m/S 718 mmHg 52%
    10:00 +28°C° 0 mm 2 m/S 719 mmHg 44%
    11:00 +29°C° 0 mm 3 m/S 718 mmHg 42%
    12:00 +30°C° 0 mm 3 m/S 718 mmHg 39%
    13:00 +31°C° 0 mm 2 m/S 718 mmHg 35%
    14:00 +30°C° 0 mm 2 m/S 718 mmHg 35%
    15:00 +30°C° 0 mm 3 m/S 718 mmHg 35%
    16:00 +30°C° 0 mm 3 m/S 718 mmHg 35%
    17:00 +27°C° 0 mm 2 m/S 717 mmHg 42%
    18:00 +25°C° 0 mm 1 m/S 717 mmHg 50%
    19:00 +22°C° 0 mm 1 m/S 717 mmHg 57%
    20:00 +21°C° 0 mm 1 m/S 717 mmHg 59%
    21:00 +21°C° 0 mm 1 m/S 717 mmHg 60%
    22:00 +20°C° 0 mm 1 m/S 717 mmHg 62%
    23:00 +20°C° 0 mm 1 m/S 717 mmHg 62%

    Morgen, 18 August, Freitag

    Zeit Temperatur Niederschläge Wind Luftdruck Luftfeuchtigkeit
    00:00 +19°C° 0 mm 1 m/S 717 mmHg 63%
    01:00 +19°C° 0 mm 1 m/S 717 mmHg 63%
    02:00 +19°C° 0 mm 1 m/S 717 mmHg 64%
    03:00 +18°C° 0 mm 1 m/S 717 mmHg 65%
    04:00 +18°C° 0 mm 1 m/S 717 mmHg 66%
    05:00 +20°C° 0 mm 1 m/S 717 mmHg 63%
    06:00 +21°C° 0 mm 1 m/S 718 mmHg 61%
    07:00 +23°C° 0 mm 1 m/S 718 mmHg 58%
    08:00 +25°C° 0 mm 1 m/S 718 mmHg 50%
    09:00 +28°C° 0 mm 1 m/S 718 mmHg 42%
    10:00 +31°C° 0 mm 1 m/S 719 mmHg 34%
    11:00 +32°C° 0 mm 1 m/S 718 mmHg 32%
    12:00 +32°C° 0 mm 1 m/S 718 mmHg 29%
    13:00 +33°C° 0 mm 1 m/S 718 mmHg 26%
    14:00 +33°C° 0 mm 1 m/S 718 mmHg 27%
    15:00 +33°C° 0 mm 1 m/S 717 mmHg 27%
    16:00 +33°C° 0 mm 1 m/S 717 mmHg 28%
    17:00 +30°C° 0 mm 1 m/S 716 mmHg 35%
    18:00 +27°C° 0 mm 1 m/S 716 mmHg 43%
    19:00 +24°C° 0 mm 1 m/S 715 mmHg 50%
    20:00 +23°C° 0 mm 1 m/S 715 mmHg 52%
    21:00 +22°C° 0 mm 1 m/S 716 mmHg 55%
    22:00 +22°C° 0 mm 1 m/S 716 mmHg 57%
    23:00 +21°C° 0 mm 1 m/S 715 mmHg 58%

    übermorgen, 19 August, Samstag

    Zeit Temperatur Niederschläge Wind Luftdruck Luftfeuchtigkeit
    00:00 +21°C° 0 mm 1 m/S 715 mmHg 59%
    01:00 +21°C° 0 mm 1 m/S 715 mmHg 60%
    02:00 +20°C° 0 mm 1 m/S 715 mmHg 61%
    03:00 +20°C° 0 mm 1 m/S 715 mmHg 62%
    04:00 +20°C° 0 mm 1 m/S 714 mmHg 62%
    05:00 +21°C° 0 mm 1 m/S 714 mmHg 61%
    06:00 +23°C° 0 mm 1 m/S 715 mmHg 59%
    07:00 +24°C° 0 mm 1 m/S 715 mmHg 57%
    08:00 +27°C° 0 mm 1 m/S 715 mmHg 49%
    09:00 +30°C° 0 mm 1 m/S 716 mmHg 40%
    10:00 +33°C° 0 mm 1 m/S 716 mmHg 32%
    11:00 +33°C° 0 mm 1 m/S 716 mmHg 30%
    12:00 +35°C° 0 mm 2 m/S 716 mmHg 29%
    13:00 +35°C° 0 mm 2 m/S 716 mmHg 28%
    14:00 +34°C° 0 mm 2 m/S 716 mmHg 34%
    15:00 +31°C° 0 mm 2 m/S 715 mmHg 39%
    16:00 +30°C° 0 mm 2 m/S 715 mmHg 44%
    17:00 +28°C° 0 mm 2 m/S 715 mmHg 50%
    18:00 +26°C° 0 mm 2 m/S 715 mmHg 56%
    19:00 +24°C° 0 mm 2 m/S 716 mmHg 62%
    20:00 +21°C° 0,1 mm 2 m/S 716 mmHg 70%
    21:00 +20°C° 0,1 mm 2 m/S 716 mmHg 78%
    22:00 +19°C° 0,1 mm 1 m/S 717 mmHg 86%
    23:00 +17°C° 0,3 mm 2 m/S 717 mmHg 89%

    20 August, Sonntag

    Zeit Temperatur Niederschläge Wind Luftdruck Luftfeuchtigkeit
    00:00 +17°C° 0,3 mm 2 m/S 717 mmHg 92%
    01:00 +16°C° 0,3 mm 2 m/S 717 mmHg 95%
    02:00 +16°C° 1 mm 2 m/S 717 mmHg 96%
    03:00 +16°C° 1 mm 2 m/S 717 mmHg 96%
    04:00 +16°C° 1 mm 1 m/S 717 mmHg 97%
    05:00 +16°C° 1,1 mm 1 m/S 717 mmHg 97%
    06:00 +16°C° 1,1 mm 1 m/S 717 mmHg 96%
    07:00 +16°C° 1,1 mm 1 m/S 717 mmHg 96%
    08:00 +18°C° 0,8 mm 1 m/S 718 mmHg 95%
    09:00 +17°C° 0,8 mm 2 m/S 718 mmHg 94%
    10:00 +17°C° 0,8 mm 2 m/S 718 mmHg 92%
    11:00 +18°C° 0,4 mm 2 m/S 718 mmHg 87%
    12:00 +19°C° 0,4 mm 2 m/S 718 mmHg 82%
    13:00 +20°C° 0,4 mm 2 m/S 718 mmHg 77%
    14:00 +21°C° 0,2 mm 1 m/S 717 mmHg 75%
    15:00 +21°C° 0,2 mm 1 m/S 717 mmHg 74%
    16:00 +21°C° 0,2 mm 1 m/S 717 mmHg 72%
    17:00 +20°C° 0 mm 1 m/S 717 mmHg 75%
    18:00 +19°C° 0 mm 1 m/S 717 mmHg 78%
    19:00 +18°C° 0 mm 1 m/S 717 mmHg 81%
    20:00 +16°C° 0 mm 1 m/S 717 mmHg 82%
    21:00 +15°C° 0 mm 1 m/S 717 mmHg 83%
    22:00 +14°C° 0 mm 1 m/S 717 mmHg 84%
    23:00 +14°C° 0 mm 1 m/S 717 mmHg 84%

    21 August, Montag

    Zeit Temperatur Niederschläge Wind Luftdruck Luftfeuchtigkeit
    00:00 +13°C° 0 mm 1 m/S 717 mmHg 83%
    01:00 +13°C° 0 mm 1 m/S 717 mmHg 82%
    02:00 +12°C° 0 mm 1 m/S 717 mmHg 82%
    03:00 +12°C° 0 mm 1 m/S 717 mmHg 83%
    04:00 +11°C° 0 mm 1 m/S 717 mmHg 84%
    05:00 +13°C° 0 mm 1 m/S 718 mmHg 81%
    06:00 +14°C° 0 mm 1 m/S 718 mmHg 77%
    07:00 +15°C° 0 mm 2 m/S 718 mmHg 74%
    08:00 +17°C° 0 mm 2 m/S 719 mmHg 66%
    09:00 +19°C° 0 mm 3 m/S 719 mmHg 57%
    10:00 +21°C° 0 mm 3 m/S 719 mmHg 48%
    11:00 +22°C° 0 mm 4 m/S 719 mmHg 45%
    12:00 +22°C° 0 mm 4 m/S 718 mmHg 41%
    13:00 +23°C° 0 mm 4 m/S 718 mmHg 38%
    14:00 +23°C° 0 mm 4 m/S 718 mmHg 37%
    15:00 +23°C° 0 mm 4 m/S 718 mmHg 36%
    16:00 +23°C° 0 mm 4 m/S 718 mmHg 35%
    17:00 +21°C° 0 mm 3 m/S 717 mmHg 42%
    18:00 +18°C° 0 mm 2 m/S 717 mmHg 48%
    19:00 +16°C° 0 mm 1 m/S 717 mmHg 54%
    20:00 +15°C° 0 mm 1 m/S 717 mmHg 57%
    21:00 +14°C° 0 mm 1 m/S 718 mmHg 59%
    22:00 +13°C° 0 mm 1 m/S 718 mmHg 61%
    23:00 +12°C° 0 mm 1 m/S 718 mmHg 63%

    22 August, Dienstag

    Zeit Temperatur Niederschläge Wind Luftdruck Luftfeuchtigkeit
    00:00 +12°C° 0 mm 1 m/S 718 mmHg 64%
    01:00 +12°C° 0 mm 1 m/S 718 mmHg 66%
    02:00 +12°C° 0 mm 1 m/S 718 mmHg 68%
    03:00 +11°C° 0 mm 1 m/S 718 mmHg 70%
    04:00 +11°C° 0 mm 1 m/S 718 mmHg 72%
    05:00 +13°C° 0 mm 1 m/S 718 mmHg 68%
    06:00 +14°C° 0 mm 1 m/S 719 mmHg 64%
    07:00 +16°C° 0 mm 1 m/S 719 mmHg 60%
    08:00 +19°C° 0 mm 1 m/S 719 mmHg 53%
    09:00 +22°C° 0 mm 1 m/S 719 mmHg 45%
    10:00 +24°C° 0 mm 2 m/S 719 mmHg 38%
    11:00 +25°C° 0 mm 2 m/S 719 mmHg 36%
    12:00 +26°C° 0 mm 2 m/S 719 mmHg 34%
    13:00 +26°C° 0 mm 2 m/S 719 mmHg 31%
    14:00 +26°C° 0 mm 2 m/S 718 mmHg 32%
    15:00 +26°C° 0 mm 2 m/S 718 mmHg 32%
    16:00 +26°C° 0 mm 1 m/S 717 mmHg 33%
    17:00 +24°C° 0 mm 1 m/S 717 mmHg 40%
    18:00 +21°C° 0 mm 1 m/S 717 mmHg 48%
    19:00 +16°C° 0 mm 0 m/S 716 mmHg 56%
    20:00 +16°C° 0 mm 1 m/S 716 mmHg 57%
    21:00 +16°C° 0 mm 1 m/S 716 mmHg 57%
    22:00 +15°C° 0 mm 1 m/S 716 mmHg 58%
    23:00 +15°C° 0 mm 1 m/S 716 mmHg 58%
    Mehr zeigen